<?xml version="1.0"?>
<gpx xmlns="http://www.topografix.com/GPX/1/1" xmlns:xsi="http://www.w3.org/2001/XMLSchema-instance" version="1.1" creator="GPX RubyGem 1.0.0 -- http://dougfales.github.io/gpx/" xsi:schemaLocation="http://www.topografix.com/GPX/1/1 http://www.topografix.com/GPX/1/1/gpx.xsd">
  <metadata>
    <name/>
    <time>2026-05-08T14:44:19+00:00</time>
    <bound minlat="90.0" minlon="180.0" maxlat="-90.0" maxlon="-180.0"/>
  </metadata>
  <trk>
    <name/>
    <trkseg>
      <trkpt lat="47.511571" lon="7.857603">
        <time>1970-01-01T00:00:00+00:00</time>
        <ele>461.0</ele>
      </trkpt>
      <trkpt lat="47.511595" lon="7.85747">
        <time>1970-01-01T00:00:00+00:00</time>
        <ele>461.0</ele>
      </trkpt>
      <trkpt lat="47.512006" lon="7.85732">
        <time>1970-01-01T00:00:00+00:00</time>
        <ele>459.0</ele>
      </trkpt>
      <trkpt lat="47.512594" lon="7.857068">
        <time>1970-01-01T00:00:00+00:00</time>
        <ele>461.0</ele>
      </trkpt>
      <trkpt lat="47.512922" lon="7.856971">
        <time>1970-01-01T00:00:00+00:00</time>
        <ele>466.0</ele>
      </trkpt>
      <trkpt lat="47.513262" lon="7.856993">
        <time>1970-01-01T00:00:00+00:00</time>
        <ele>467.0</ele>
      </trkpt>
      <trkpt lat="47.513565" lon="7.856957">
        <time>1970-01-01T00:00:00+00:00</time>
        <ele>464.0</ele>
      </trkpt>
      <trkpt lat="47.513902" lon="7.856879">
        <time>1970-01-01T00:00:00+00:00</time>
        <ele>466.0</ele>
      </trkpt>
      <trkpt lat="47.514225" lon="7.856923">
        <time>1970-01-01T00:00:00+00:00</time>
        <ele>468.0</ele>
      </trkpt>
      <trkpt lat="47.514559" lon="7.85706">
        <time>1970-01-01T00:00:00+00:00</time>
        <ele>471.0</ele>
      </trkpt>
      <trkpt lat="47.514559" lon="7.85706">
        <time>1970-01-01T00:00:00+00:00</time>
        <ele>471.0</ele>
      </trkpt>
      <trkpt lat="47.514225" lon="7.856923">
        <time>1970-01-01T00:00:00+00:00</time>
        <ele>468.0</ele>
      </trkpt>
      <trkpt lat="47.513902" lon="7.856879">
        <time>1970-01-01T00:00:00+00:00</time>
        <ele>466.0</ele>
      </trkpt>
      <trkpt lat="47.513565" lon="7.856957">
        <time>1970-01-01T00:00:00+00:00</time>
        <ele>464.0</ele>
      </trkpt>
      <trkpt lat="47.513262" lon="7.856993">
        <time>1970-01-01T00:00:00+00:00</time>
        <ele>467.0</ele>
      </trkpt>
      <trkpt lat="47.512922" lon="7.856971">
        <time>1970-01-01T00:00:00+00:00</time>
        <ele>466.0</ele>
      </trkpt>
      <trkpt lat="47.512594" lon="7.857068">
        <time>1970-01-01T00:00:00+00:00</time>
        <ele>461.0</ele>
      </trkpt>
      <trkpt lat="47.512006" lon="7.85732">
        <time>1970-01-01T00:00:00+00:00</time>
        <ele>459.0</ele>
      </trkpt>
      <trkpt lat="47.511595" lon="7.85747">
        <time>1970-01-01T00:00:00+00:00</time>
        <ele>461.0</ele>
      </trkpt>
      <trkpt lat="47.511571" lon="7.857603">
        <time>1970-01-01T00:00:00+00:00</time>
        <ele>461.0</ele>
      </trkpt>
    </trkseg>
  </trk>
</gpx>
